Time,TemperatureF,DewpointF,PressureIn,WindDirection,WindDirectionDegrees,WindSpeedMPH,WindSpeedGustMPH,Humidity,HourlyPrecipIn,Conditions,Clouds,dailyrainin,SoftwareType,DateUTC
2013-03-13 00:02:00,26.0,15.0,30.17,West,270,1.0,5.0,63,0.00,,,0.00,,2013-03-13 05:02:00,
2013-03-13 00:12:00,26.0,15.0,30.17,West,270,1.0,5.0,63,0.00,,,0.00,,2013-03-13 05:12:00,
2013-03-13 00:22:00,26.0,13.0,30.17,WSW,248,1.0,8.0,58,0.00,,,0.00,,2013-03-13 05:22:00,
2013-03-13 00:32:00,26.0,13.0,30.17,WNW,303,0.0,3.0,58,0.00,,,0.00,,2013-03-13 05:32:00,
2013-03-13 00:42:00,26.0,13.0,30.17,WNW,303,0.0,3.0,58,0.00,,,0.00,,2013-03-13 05:42:00,
2013-03-13 00:52:00,26.0,13.0,30.17,West,270,3.0,0.0,57,0.00,,,0.00,,2013-03-13 05:52:00,
2013-03-13 01:02:00,26.0,15.0,30.18,West,270,6.0,6.0,63,0.00,,,0.00,,2013-03-13 06:02:00,
2013-03-13 01:12:00,26.0,15.0,30.18,West,270,6.0,6.0,63,0.00,,,0.00,,2013-03-13 06:12:00,
2013-03-13 01:23:00,25.0,15.0,30.18,SSW,202,3.0,7.0,64,0.00,,,0.00,,2013-03-13 06:23:00,
2013-03-13 01:32:00,25.0,15.0,30.18,West,277,3.0,6.0,64,0.00,,,0.00,,2013-03-13 06:32:00,
2013-03-13 01:42:00,25.0,15.0,30.18,West,277,3.0,6.0,64,0.00,,,0.00,,2013-03-13 06:42:00,
2013-03-13 01:52:00,25.0,14.0,30.17,NW,315,3.0,7.0,62,0.00,,,0.00,,2013-03-13 06:52:00,
2013-03-13 02:02:00,25.0,14.0,30.17,WNW,292,7.0,7.0,62,0.00,,,0.00,,2013-03-13 07:02:00,
2013-03-13 02:12:00,25.0,14.0,30.17,WNW,292,7.0,7.0,62,0.00,,,0.00,,2013-03-13 07:12:00,
2013-03-13 02:22:00,24.0,13.0,30.18,WSW,248,1.0,3.0,62,0.00,,,0.00,,2013-03-13 07:22:00,
2013-03-13 02:32:00,24.0,14.0,30.18,WSW,255,3.0,6.0,66,0.00,,,0.00,,2013-03-13 07:32:00,
2013-03-13 02:42:00,24.0,14.0,30.18,WSW,255,3.0,6.0,66,0.00,,,0.00,,2013-03-13 07:42:00,
2013-03-13 02:52:00,24.0,14.0,30.19,WNW,292,6.0,7.0,66,0.00,,,0.00,,2013-03-13 07:52:00,
2013-03-13 03:03:00,24.0,14.0,30.18,WSW,249,1.0,6.0,66,0.00,,,0.00,,2013-03-13 08:03:00,
2013-03-13 03:12:00,24.0,14.0,30.18,WSW,249,1.0,6.0,66,0.00,,,0.00,,2013-03-13 08:12:00,
2013-03-13 03:22:00,24.0,14.0,30.19,SW,225,6.0,8.0,64,0.00,,,0.00,,2013-03-13 08:22:00,
2013-03-13 03:32:00,24.0,13.0,30.19,West,271,6.0,8.0,63,0.00,,,0.00,,2013-03-13 08:32:00,
2013-03-13 03:43:00,24.0,13.0,30.19,West,271,6.0,8.0,63,0.00,,,0.00,,2013-03-13 08:43:00,
2013-03-13 03:53:00,24.0,13.0,30.19,WSW,248,3.0,6.0,62,0.00,,,0.00,,2013-03-13 08:53:00,
2013-03-13 04:02:00,24.0,13.0,30.19,WNW,292,0.0,6.0,62,0.00,,,0.00,,2013-03-13 09:02:00,
2013-03-13 04:12:00,24.0,13.0,30.19,WNW,292,0.0,6.0,62,0.00,,,0.00,,2013-03-13 09:12:00,
2013-03-13 04:22:00,24.0,13.0,30.20,WSW,248,7.0,7.0,61,0.00,,,0.00,,2013-03-13 09:22:00,
2013-03-13 04:32:00,24.0,13.0,30.20,WNW,292,1.0,7.0,61,0.00,,,0.00,,2013-03-13 09:32:00,
2013-03-13 04:42:00,24.0,13.0,30.20,WNW,292,1.0,7.0,61,0.00,,,0.00,,2013-03-13 09:42:00,
2013-03-13 04:52:00,24.0,13.0,30.21,WNW,292,0.0,2.0,61,0.00,,,0.00,,2013-03-13 09:52:00,
2013-03-13 05:02:00,24.0,13.0,30.21,NW,315,1.0,7.0,62,0.00,,,0.00,,2013-03-13 10:02:00,
2013-03-13 05:12:00,24.0,13.0,30.21,NW,315,1.0,7.0,62,0.00,,,0.00,,2013-03-13 10:12:00,
2013-03-13 05:22:00,24.0,13.0,30.22,WNW,290,0.0,3.0,61,0.00,,,0.00,,2013-03-13 10:22:00,
2013-03-13 05:32:00,24.0,13.0,30.22,West,270,4.0,7.0,61,0.00,,,0.00,,2013-03-13 10:32:00,
2013-03-13 05:42:00,24.0,13.0,30.22,West,270,4.0,7.0,61,0.00,,,0.00,,2013-03-13 10:42:00,
2013-03-13 05:52:00,24.0,13.0,30.23,SW,231,0.0,0.0,61,0.00,,,0.00,,2013-03-13 10:52:00,
2013-03-13 06:02:00,23.0,12.0,30.23,WNW,292,0.0,0.0,61,0.00,,,0.00,,2013-03-13 11:02:00,
2013-03-13 06:12:00,23.0,12.0,30.23,WNW,292,0.0,0.0,61,0.00,,,0.00,,2013-03-13 11:12:00,
2013-03-13 06:22:00,23.0,11.0,30.24,WNW,289,0.0,8.0,60,0.00,,,0.00,,2013-03-13 11:22:00,
2013-03-13 06:32:00,24.0,12.0,30.25,WNW,292,3.0,7.0,60,0.00,,,0.00,,2013-03-13 11:32:00,
2013-03-13 06:42:00,24.0,12.0,30.25,WNW,292,3.0,7.0,60,0.00,,,0.00,,2013-03-13 11:42:00,
2013-03-13 06:52:00,24.0,12.0,30.25,WNW,284,0.0,2.0,59,0.00,,,0.00,,2013-03-13 11:52:00,
2013-03-13 07:02:00,24.0,12.0,30.25,WNW,292,2.0,2.0,59,0.00,,,0.00,,2013-03-13 12:02:00,
2013-03-13 07:12:00,24.0,12.0,30.25,WNW,292,2.0,2.0,59,0.00,,,0.00,,2013-03-13 12:12:00,
2013-03-13 07:22:00,23.0,10.0,30.26,West,281,0.0,8.0,57,0.00,,,0.00,,2013-03-13 12:22:00,
2013-03-13 07:32:00,22.0,7.0,30.27,WNW,292,7.0,10.0,52,0.00,,,0.00,,2013-03-13 12:32:00,
2013-03-13 07:42:00,22.0,7.0,30.27,WNW,292,7.0,10.0,52,0.00,,,0.00,,2013-03-13 12:42:00,
2013-03-13 07:53:00,21.0,4.0,30.28,West,276,5.0,7.0,48,0.00,,,0.00,,2013-03-13 12:53:00,
2013-03-13 08:02:00,21.0,4.0,30.29,WNW,292,6.0,12.0,48,0.00,,,0.00,,2013-03-13 13:02:00,
2013-03-13 08:11:00,21.0,4.0,30.29,WNW,292,6.0,12.0,48,0.00,,,0.00,,2013-03-13 13:11:00,
2013-03-13 08:22:00,21.0,4.0,30.30,WNW,292,0.0,6.0,48,0.00,,,0.00,,2013-03-13 13:22:00,
2013-03-13 08:32:00,21.0,4.0,30.30,WNW,292,0.0,6.0,48,0.00,,,0.00,,2013-03-13 13:32:00,
2013-03-13 08:42:00,21.0,4.0,30.30,WNW,292,0.0,6.0,48,0.00,,,0.00,,2013-03-13 13:42:00,
2013-03-13 08:52:00,24.0,6.0,30.30,WNW,295,7.0,7.0,46,0.00,,,0.00,,2013-03-13 13:52:00,
2013-03-13 09:02:00,24.0,5.0,30.31,NNW,331,1.0,6.0,44,0.00,,,0.00,,2013-03-13 14:02:00,
2013-03-13 09:12:00,24.0,5.0,30.31,NNW,331,1.0,6.0,44,0.00,,,0.00,,2013-03-13 14:12:00,
2013-03-13 09:21:00,26.0,6.0,30.32,WSW,248,0.0,10.0,42,0.00,,,0.00,,2013-03-13 14:21:00,
2013-03-13 09:33:00,26.0,6.0,30.32,WNW,288,3.0,13.0,41,0.00,,,0.00,,2013-03-13 14:33:00,
2013-03-13 09:42:00,26.0,6.0,30.32,WNW,288,3.0,13.0,41,0.00,,,0.00,,2013-03-13 14:42:00,
2013-03-13 09:52:00,26.0,5.0,30.33,WNW,292,2.0,9.0,40,0.00,,,0.00,,2013-03-13 14:52:00,
2013-03-13 10:03:00,28.0,7.0,30.33,WNW,292,6.0,7.0,40,0.00,,,0.00,,2013-03-13 15:03:00,
2013-03-13 10:12:00,28.0,7.0,30.33,WNW,292,6.0,7.0,40,0.00,,,0.00,,2013-03-13 15:12:00,
2013-03-13 10:22:00,28.0,5.0,30.35,West,270,0.0,6.0,36,0.00,,,0.00,,2013-03-13 15:22:00,
2013-03-13 10:32:00,26.0,3.0,30.35,WNW,292,7.0,9.0,36,0.00,,,0.00,,2013-03-13 15:32:00,
2013-03-13 10:42:00,26.0,3.0,30.35,WNW,292,7.0,9.0,36,0.00,,,0.00,,2013-03-13 15:42:00,
2013-03-13 10:52:00,27.0,3.0,30.35,West,270,3.0,3.0,35,0.00,,,0.00,,2013-03-13 15:52:00,
2013-03-13 11:02:00,28.0,4.0,30.35,NW,315,0.0,7.0,35,0.00,,,0.00,,2013-03-13 16:02:00,
2013-03-13 11:12:00,28.0,4.0,30.35,NW,315,0.0,7.0,35,0.00,,,0.00,,2013-03-13 16:12:00,
2013-03-13 11:22:00,27.0,2.0,30.36,WNW,292,10.0,10.0,34,0.00,,,0.00,,2013-03-13 16:22:00,
2013-03-13 11:32:00,27.0,2.0,30.37,West,270,5.0,5.0,34,0.00,,,0.00,,2013-03-13 16:32:00,
2013-03-13 11:42:00,27.0,2.0,30.37,West,270,5.0,5.0,34,0.00,,,0.00,,2013-03-13 16:42:00,
2013-03-13 11:52:00,29.0,3.0,30.37,NW,315,12.0,14.0,32,0.00,,,0.00,,2013-03-13 16:52:00,
2013-03-13 12:02:00,30.0,4.0,30.37,WNW,292,6.0,6.0,32,0.00,,,0.00,,2013-03-13 17:02:00,
2013-03-13 12:12:00,30.0,4.0,30.37,WNW,292,6.0,6.0,32,0.00,,,0.00,,2013-03-13 17:12:00,
2013-03-13 12:22:00,30.0,2.0,30.38,WSW,248,6.0,8.0,30,0.00,,,0.00,,2013-03-13 17:22:00,
2013-03-13 12:32:00,31.0,3.0,30.38,West,270,8.0,8.0,30,0.00,,,0.00,,2013-03-13 17:32:00,
2013-03-13 12:42:00,31.0,3.0,30.38,West,270,8.0,8.0,30,0.00,,,0.00,,2013-03-13 17:42:00,
2013-03-13 12:53:00,32.0,-6.0,30.39,West,270,1.0,8.0,19,0.00,,,0.00,,2013-03-13 17:53:00,
2013-03-13 13:02:00,33.0,-4.0,30.40,NW,316,6.0,13.0,20,0.00,,,0.00,,2013-03-13 18:02:00,
2013-03-13 13:12:00,33.0,-4.0,30.40,NW,316,6.0,13.0,20,0.00,,,0.00,,2013-03-13 18:12:00,
2013-03-13 13:22:00,33.0,-5.0,30.40,WNW,296,2.0,9.0,19,0.00,,,0.00,,2013-03-13 18:22:00,
2013-03-13 13:33:00,35.0,-3.0,30.39,North,0,5.0,6.0,19,0.00,,,0.00,,2013-03-13 18:33:00,
2013-03-13 13:42:00,35.0,-3.0,30.39,North,0,5.0,6.0,19,0.00,,,0.00,,2013-03-13 18:42:00,
2013-03-13 13:52:00,39.0,0.0,30.40,North,0,0.0,7.0,19,0.00,,,0.00,,2013-03-13 18:52:00,
2013-03-13 14:02:00,38.0,-1.0,30.39,WNW,292,5.0,7.0,19,0.00,,,0.00,,2013-03-13 19:02:00,
2013-03-13 14:12:00,38.0,-1.0,30.39,WNW,292,5.0,7.0,19,0.00,,,0.00,,2013-03-13 19:12:00,
2013-03-13 14:22:00,41.0,2.0,30.39,WSW,253,7.0,9.0,19,0.00,,,0.00,,2013-03-13 19:22:00,
2013-03-13 14:32:00,40.0,1.0,30.39,WNW,292,5.0,10.0,19,0.00,,,0.00,,2013-03-13 19:32:00,
2013-03-13 14:43:00,40.0,1.0,30.39,WNW,292,5.0,10.0,19,0.00,,,0.00,,2013-03-13 19:43:00,
2013-03-13 14:53:00,44.0,4.0,30.39,NNW,339,0.0,1.0,19,0.00,,,0.00,,2013-03-13 19:53:00,
2013-03-13 15:02:00,46.0,6.0,30.40,WNW,296,0.0,1.0,19,0.00,,,0.00,,2013-03-13 20:02:00,
2013-03-13 15:12:00,46.0,6.0,30.40,WNW,296,0.0,1.0,19,0.00,,,0.00,,2013-03-13 20:12:00,
2013-03-13 15:22:00,47.0,7.0,30.40,NNW,329,0.0,7.0,19,0.00,,,0.00,,2013-03-13 20:22:00,
2013-03-13 15:32:00,44.0,4.0,30.40,NE,43,0.0,0.0,19,0.00,,,0.00,,2013-03-13 20:32:00,
2013-03-13 15:42:00,44.0,4.0,30.40,NE,43,0.0,0.0,19,0.00,,,0.00,,2013-03-13 20:42:00,
2013-03-13 15:52:00,46.0,6.0,30.40,NW,315,2.0,7.0,19,0.00,,,0.00,,2013-03-13 20:52:00,
2013-03-13 16:02:00,45.0,5.0,30.40,North,351,0.0,7.0,19,0.00,,,0.00,,2013-03-13 21:02:00,
2013-03-13 16:12:00,45.0,5.0,30.40,North,351,0.0,7.0,19,0.00,,,0.00,,2013-03-13 21:12:00,
2013-03-13 16:22:00,45.0,5.0,30.41,WNW,292,1.0,8.0,19,0.00,,,0.00,,2013-03-13 21:22:00,
2013-03-13 16:33:00,43.0,4.0,30.41,West,280,4.0,8.0,19,0.00,,,0.00,,2013-03-13 21:33:00,
2013-03-13 16:42:00,43.0,4.0,30.41,West,280,4.0,8.0,19,0.00,,,0.00,,2013-03-13 21:42:00,
2013-03-13 16:52:00,46.0,6.0,30.42,WSW,248,1.0,2.0,19,0.00,,,0.00,,2013-03-13 21:52:00,
2013-03-13 17:02:00,46.0,6.0,30.42,WSW,248,6.0,8.0,19,0.00,,,0.00,,2013-03-13 22:02:00,
2013-03-13 17:12:00,46.0,6.0,30.42,WSW,248,6.0,8.0,19,0.00,,,0.00,,2013-03-13 22:12:00,
2013-03-13 17:22:00,45.0,5.0,30.43,WSW,248,0.0,6.0,19,0.00,,,0.00,,2013-03-13 22:22:00,
2013-03-13 17:32:00,45.0,5.0,30.43,WSW,248,1.0,7.0,19,0.00,,,0.00,,2013-03-13 22:32:00,
2013-03-13 17:42:00,45.0,5.0,30.43,WSW,248,1.0,7.0,19,0.00,,,0.00,,2013-03-13 22:42:00,
2013-03-13 17:52:00,46.0,6.0,30.43,WSW,248,2.0,2.0,19,0.00,,,0.00,,2013-03-13 22:52:00,
2013-03-13 18:02:00,46.0,6.0,30.43,WSW,248,2.0,2.0,19,0.00,,,0.00,,2013-03-13 23:02:00,
2013-03-13 18:12:00,46.0,6.0,30.43,WSW,248,2.0,2.0,19,0.00,,,0.00,,2013-03-13 23:12:00,
2013-03-13 18:22:00,43.0,4.0,30.44,NW,318,0.0,0.0,19,0.00,,,0.00,,2013-03-13 23:22:00,
2013-03-13 18:32:00,39.0,0.0,30.44,NW,315,0.0,0.0,19,0.00,,,0.00,,2013-03-13 23:32:00,
2013-03-13 18:43:00,39.0,0.0,30.44,NW,315,0.0,0.0,19,0.00,,,0.00,,2013-03-13 23:43:00,
2013-03-13 18:52:00,34.0,-4.0,30.44,NE,45,0.0,0.0,19,0.00,,,0.00,,2013-03-13 23:52:00,
2013-03-13 19:02:00,31.0,-6.0,30.45,North,0,0.0,0.0,19,0.00,,,0.00,,2013-03-14 00:02:00,
2013-03-13 19:12:00,31.0,-6.0,30.45,North,0,0.0,0.0,19,0.00,,,0.00,,2013-03-14 00:12:00,
2013-03-13 19:22:00,27.0,-10.0,30.45,NNW,338,0.0,0.0,19,0.00,,,0.00,,2013-03-14 00:22:00,
2013-03-13 19:32:00,25.0,-11.0,30.45,NNW,338,0.0,0.0,19,0.00,,,0.00,,2013-03-14 00:32:00,
2013-03-13 19:42:00,25.0,-11.0,30.45,NNW,338,0.0,0.0,19,0.00,,,0.00,,2013-03-14 00:42:00,
2013-03-13 19:52:00,22.0,-13.0,30.45,NNW,338,0.0,0.0,20,0.00,,,0.00,,2013-03-14 00:52:00,
2013-03-13 20:02:00,22.0,-5.0,30.45,NNW,338,0.0,0.0,29,0.00,,,0.00,,2013-03-14 01:02:00,
2013-03-13 20:12:00,22.0,-5.0,30.45,NNW,338,0.0,0.0,29,0.00,,,0.00,,2013-03-14 01:12:00,
2013-03-13 20:22:00,21.0,-2.0,30.45,NNW,338,0.0,0.0,36,0.00,,,0.00,,2013-03-14 01:22:00,
2013-03-13 20:32:00,21.0,-2.0,30.45,NNW,338,0.0,0.0,36,0.00,,,0.00,,2013-03-14 01:32:00,
2013-03-13 20:42:00,21.0,-2.0,30.45,NNW,338,0.0,0.0,36,0.00,,,0.00,,2013-03-14 01:42:00,
2013-03-13 20:53:00,23.0,2.0,30.46,WSW,248,0.0,0.0,40,0.00,,,0.00,,2013-03-14 01:53:00,
2013-03-13 21:02:00,24.0,2.0,30.45,SW,225,0.0,0.0,38,0.00,,,0.00,,2013-03-14 02:02:00,
2013-03-13 21:12:00,24.0,2.0,30.45,SW,225,0.0,0.0,38,0.00,,,0.00,,2013-03-14 02:12:00,
2013-03-13 21:22:00,24.0,3.0,30.46,SW,225,0.0,0.0,39,0.00,,,0.00,,2013-03-14 02:22:00,
2013-03-13 21:32:00,24.0,3.0,30.47,SW,225,0.0,0.0,40,0.00,,,0.00,,2013-03-14 02:32:00,
2013-03-13 21:42:00,24.0,3.0,30.47,SW,225,0.0,0.0,40,0.00,,,0.00,,2013-03-14 02:42:00,
2013-03-13 21:52:00,24.0,3.0,30.47,SW,225,0.0,0.0,40,0.00,,,0.00,,2013-03-14 02:52:00,
2013-03-13 22:02:00,24.0,5.0,30.48,WSW,248,0.0,0.0,43,0.00,,,0.00,,2013-03-14 03:02:00,
2013-03-13 22:12:00,24.0,5.0,30.48,WSW,248,0.0,0.0,43,0.00,,,0.00,,2013-03-14 03:12:00,
2013-03-13 22:23:00,24.0,5.0,30.48,West,272,0.0,0.0,44,0.00,,,0.00,,2013-03-14 03:23:00,
2013-03-13 22:32:00,23.0,4.0,30.48,WSW,248,0.0,0.0,44,0.00,,,0.00,,2013-03-14 03:32:00,
2013-03-13 22:42:00,23.0,4.0,30.48,WSW,248,0.0,0.0,44,0.00,,,0.00,,2013-03-14 03:42:00,
2013-03-13 22:52:00,23.0,5.0,30.48,West,270,0.0,0.0,45,0.00,,,0.00,,2013-03-14 03:52:00,
2013-03-13 23:12:00,23.0,5.0,30.48,SW,225,0.0,0.0,45,0.00,,,0.00,,2013-03-14 04:12:00,
2013-03-13 23:22:00,22.0,4.0,30.47,West,270,0.0,0.0,46,0.00,,,0.00,,2013-03-14 04:22:00,
2013-03-13 23:32:00,22.0,4.0,30.47,WSW,248,0.0,0.0,46,0.00,,,0.00,,2013-03-14 04:32:00,
2013-03-13 23:42:00,22.0,4.0,30.47,WSW,248,0.0,0.0,46,0.00,,,0.00,,2013-03-14 04:42:00,
2013-03-13 23:52:00,22.0,4.0,30.46,WSW,248,0.0,0.0,46,0.00,,,0.00,,2013-03-14 04:52:00,